| time (UTC) | temp C | wind direction | speed KPH | gust KPH | rain 1hr cm | rain 24hr cm | rain mn cm | humidity % | barometer mb |
| 20260506123747 | 13 | 1 | 16.1 | 30.6 | 0.00 | 0.00 | 0.00 | 55 | 1009.5 |
| 20260506122746 | 13 | 3 | 14.5 | 29.0 | 0.00 | 0.00 | 0.00 | 54 | 1009.6 |
| 20260506121745 | 13 | 3 | 17.7 | 29.0 | 0.00 | 0.00 | 0.00 | 55 | 1009.5 |
| 20260506120744 | 13 | 4 | 17.7 | 33.8 | 0.00 | 0.00 | 0.00 | 54 | 1009.4 |
| 20260506115743 | 14 | 8 | 17.7 | 33.8 | 0.00 | 0.00 | 0.00 | 56 | 1009.6 |
| 20260506114743 | 13 | 8 | 17.7 | 33.8 | 0.00 | 0.00 | 0.00 | 58 | 1009.6 |
| 20260506113743 | 15 | 10 | 17.7 | 33.8 | 0.00 | 0.00 | 0.00 | 58 | 1009.6 |
| 20260506112742 | 12 | 12 | 17.7 | 32.2 | 0.00 | 0.00 | 0.00 | 66 | 1009.6 |
| 20260506111742 | 11 | 12 | 17.7 | 32.2 | 0.00 | 0.00 | 0.00 | 69 | 1009.7 |
| 20260506110740 | 11 | 14 | 16.1 | 32.2 | 0.00 | 0.00 | 0.00 | 74 | 1009.7 |
| 20260506105740 | 12 | 6 | 17.7 | 33.8 | 0.00 | 0.00 | 0.00 | 74 | 1009.8 |
| 20260506104739 | 12 | 6 | 17.7 | 33.8 | 0.00 | 0.00 | 0.00 | 70 | 1009.8 |
| 20260506103739 | 11 | 9 | 17.7 | 32.2 | 0.00 | 0.00 | 0.00 | 67 | 1009.7 |
| 20260506102738 | 11 | 13 | 16.1 | 32.2 | 0.00 | 0.00 | 0.00 | 67 | 1009.7 |
| 20260506101737 | 11 | 13 | 16.1 | 32.2 | 0.00 | 0.00 | 0.00 | 64 | 1009.7 |
| 20260506100737 | 12 | 16 | 16.1 | 32.2 | 0.00 | 0.00 | 0.00 | 60 | 1009.5 |
| 20260506095736 | 13 | 11 | 16.1 | 30.6 | 0.00 | 0.00 | 0.00 | 61 | 1009.6 |
| 20260506094735 | 13 | 11 | 16.1 | 30.6 | 0.00 | 0.00 | 0.00 | 61 | 1009.5 |
| 20260506093734 | 11 | 354 | 16.1 | 32.2 | 0.00 | 0.00 | 0.00 | 66 | 1009.6 |
| 20260506092733 | 10 | 354 | 16.1 | 30.6 | 0.00 | 0.00 | 0.00 | 68 | 1009.7 |
| 20260506091732 | 11 | 354 | 16.1 | 30.6 | 0.00 | 0.00 | 0.00 | 63 | 1009.4 |
| 20260506090731 | 12 | 354 | 16.1 | 30.6 | 0.00 | 0.00 | 0.00 | 63 | 1009.4 |
| 20260506085731 | 12 | 346 | 16.1 | 30.6 | 0.00 | 0.00 | 0.00 | 62 | 1009.4 |
| 20260506084729 | 11 | 346 | 16.1 | 30.6 | 0.00 | 0.00 | 0.00 | 66 | 1009.4 |
| 20260506083729 | 11 | 346 | 14.5 | 29.0 | 0.00 | 0.00 | 0.00 | 68 | 1009.3 |
| 20260506082728 | 11 | 346 | 16.1 | 29.0 | 0.00 | 0.00 | 0.00 | 68 | 1009.4 |
| 20260506081728 | 11 | 354 | 16.1 | 29.0 | 0.00 | 0.00 | 0.00 | 67 | 1009.4 |
| 20260506080727 | 10 | 354 | 16.1 | 29.0 | 0.00 | 0.00 | 0.00 | 68 | 1009.4 |
| 20260506072725 | 11 | 348 | 14.5 | 29.0 | 0.00 | 0.00 | 0.00 | 67 | 1009.4 |
| 20260506071723 | 10 | 348 | 14.5 | 29.0 | 0.00 | 0.00 | 0.00 | 70 | 1009.3 |
| 20260506070722 | 10 | 348 | 14.5 | 29.0 | 0.00 | 0.00 | 0.00 | 71 | 1009.3 |
| 20260506061719 | 7 | 330 | 14.5 | 29.0 | 0.00 | 0.00 | 0.00 | 79 | 1009.1 |
| 20260506060717 | 7 | 330 | 14.5 | 27.4 | 0.00 | 0.00 | 0.00 | 81 | 1009.2 |
| 20260506050712 | 5 | 326 | 9.7 | 17.7 | 0.00 | 0.00 | 0.00 | 88 | 1009.1 |
| 20260506044711 | 5 | 326 | 9.7 | 17.7 | 0.00 | 0.00 | 0.00 | 87 | 1009.1 |
| 20260506043710 | 5 | 326 | 9.7 | 17.7 | 0.00 | 0.00 | 0.00 | 87 | 1009.1 |
| 20260506042709 | 5 | 326 | 9.7 | 17.7 | 0.00 | 0.00 | 0.00 | 87 | 1009.2 |
| 20260506041708 | 5 | 326 | 9.7 | 17.7 | 0.00 | 0.00 | 0.00 | 86 | 1009.1 |
| 20260506040708 | 6 | 326 | 9.7 | 19.3 | 0.00 | 0.00 | 0.00 | 85 | 1009.1 |
| 20260506035707 | 6 | 340 | 9.7 | 19.3 | 0.00 | 0.00 | 0.00 | 84 | 1009.1 |
| 20260506034706 | 6 | 340 | 9.7 | 19.3 | 0.00 | 0.00 | 0.00 | 84 | 1009.2 |
| 20260506033706 | 6 | 340 | 11.3 | 20.9 | 0.00 | 0.00 | 0.00 | 84 | 1009.2 |
| 20260506032704 | 6 | 340 | 11.3 | 22.5 | 0.00 | 0.00 | 0.00 | 83 | 1009.2 |
| 20260506031703 | 6 | 340 | 11.3 | 22.5 | 0.00 | 0.00 | 0.00 | 83 | 1009.3 |
| 20260506030703 | 6 | 340 | 11.3 | 20.9 | 0.00 | 0.00 | 0.00 | 83 | 1009.4 |
| 20260506025702 | 7 | 0 | 11.3 | 20.9 | 0.00 | 0.00 | 0.00 | 82 | 1009.6 |
| 20260506024701 | 7 | 340 | 11.3 | 20.9 | 0.00 | 0.00 | 0.00 | 81 | 1009.6 |
| 20260506023700 | 7 | 340 | 11.3 | 20.9 | 0.00 | 0.00 | 0.00 | 80 | 1009.6 |
| 20260506022700 | 7 | 340 | 9.7 | 19.3 | 0.00 | 0.00 | 0.00 | 79 | 1009.5 |
| 20260506021659 | 7 | 340 | 9.7 | 19.3 | 0.00 | 0.00 | 0.00 | 78 | 1009.6 |
| 20260506020659 | 8 | 340 | 9.7 | 19.3 | 0.00 | 0.00 | 0.00 | 77 | 1009.6 |
| 20260506015658 | 8 | 352 | 9.7 | 19.3 | 0.00 | 0.00 | 0.00 | 76 | 1009.7 |
| 20260506014656 | 8 | 352 | 9.7 | 19.3 | 0.00 | 0.00 | 0.00 | 76 | 1009.7 |
| 20260506013655 | 8 | 352 | 9.7 | 19.3 | 0.00 | 0.00 | 0.00 | 76 | 1009.7 |
| 20260506012654 | 8 | 352 | 9.7 | 19.3 | 0.00 | 0.00 | 0.00 | 76 | 1009.7 |
| 20260506011653 | 8 | 352 | 9.7 | 19.3 | 0.00 | 0.00 | 0.00 | 76 | 1009.8 |
| 20260506010653 | 8 | 352 | 9.7 | 17.7 | 0.00 | 0.00 | 0.00 | 77 | 1009.8 |
| 20260506005652 | 8 | 352 | 9.7 | 17.7 | 0.00 | 0.00 | 0.00 | 78 | 1009.9 |
| 20260506004651 | 8 | 0 | 11.3 | 20.9 | 0.00 | 0.00 | 0.00 | 79 | 1009.9 |
| 20260506003650 | 9 | 0 | 11.3 | 20.9 | 0.00 | 0.00 | 0.00 | 79 | 1009.9 |
| 20260506002649 | 8 | 0 | 9.7 | 19.3 | 0.00 | 0.00 | 0.00 | 79 | 1010.1 |
| 20260506001649 | 8 | 0 | 9.7 | 19.3 | 0.00 | 0.00 | 0.00 | 80 | 1010.0 |
| 20260506000648 | 8 | 0 | 9.7 | 19.3 | 0.00 | 0.00 | 0.00 | 80 | 1010.1 |
| 20260505235647 | 9 | 6 | 9.7 | 19.3 | 0.00 | 0.00 | 0.00 | 79 | 1010.1 |
| 20260505234646 | 9 | 6 | 9.7 | 19.3 | 0.00 | 0.00 | 0.00 | 80 | 1010.2 |
| 20260505233645 | 9 | 6 | 9.7 | 19.3 | 0.00 | 0.00 | 0.00 | 80 | 1010.2 |
| 20260505232645 | 9 | 6 | 9.7 | 20.9 | 0.00 | 0.00 | 0.00 | 80 | 1010.2 |
| 20260505231644 | 8 | 6 | 9.7 | 20.9 | 0.00 | 0.00 | 0.00 | 80 | 1010.2 |
| 20260505230642 | 9 | 6 | 11.3 | 20.9 | 0.00 | 0.00 | 0.00 | 80 | 1010.2 |
| 20260505225642 | 9 | 12 | 11.3 | 20.9 | 0.00 | 0.00 | 0.00 | 80 | 1010.3 |
| 20260505224641 | 9 | 12 | 11.3 | 20.9 | 0.00 | 0.00 | 0.00 | 78 | 1010.3 |
| 20260505223640 | 9 | 12 | 11.3 | 20.9 | 0.00 | 0.00 | 0.00 | 78 | 1010.4 |
| 20260505222639 | 9 | 12 | 11.3 | 22.5 | 0.00 | 0.00 | 0.00 | 77 | 1010.4 |
| 20260505221638 | 10 | 12 | 11.3 | 22.5 | 0.00 | 0.00 | 0.00 | 77 | 1010.4 |
| 20260505220637 | 10 | 12 | 11.3 | 22.5 | 0.00 | 0.00 | 0.00 | 76 | 1010.4 |
| 20260505215636 | 10 | 20 | 11.3 | 22.5 | 0.00 | 0.00 | 0.00 | 76 | 1010.3 |
| 20260505214635 | 10 | 20 | 11.3 | 22.5 | 0.00 | 0.00 | 0.00 | 76 | 1010.3 |
| 20260505213635 | 10 | 12 | 9.7 | 20.9 | 0.00 | 0.00 | 0.00 | 75 | 1010.4 |
| 20260505212634 | 10 | 12 | 11.3 | 22.5 | 0.00 | 0.00 | 0.00 | 74 | 1010.3 |
| 20260505211634 | 10 | 16 | 11.3 | 22.5 | 0.00 | 0.00 | 0.00 | 74 | 1010.3 |
| 20260505210633 | 10 | 16 | 11.3 | 20.9 | 0.00 | 0.00 | 0.00 | 73 | 1010.4 |
| 20260505205633 | 10 | 18 | 11.3 | 20.9 | 0.00 | 0.00 | 0.00 | 73 | 1010.3 |
| 20260505204632 | 10 | 18 | 11.3 | 20.9 | 0.00 | 0.00 | 0.00 | 73 | 1010.3 |
| 20260505203631 | 10 | 18 | 9.7 | 20.9 | 0.00 | 0.00 | 0.00 | 72 | 1010.3 |
| 20260505202631 | 11 | 18 | 9.7 | 19.3 | 0.00 | 0.00 | 0.00 | 71 | 1010.2 |
| 20260505201630 | 11 | 18 | 9.7 | 19.3 | 0.00 | 0.00 | 0.00 | 71 | 1010.0 |
| 20260505200629 | 11 | 18 | 9.7 | 17.7 | 0.00 | 0.00 | 0.00 | 71 | 1010.0 |
| 20260505195628 | 11 | 48 | 9.7 | 17.7 | 0.00 | 0.00 | 0.00 | 73 | 1009.9 |
| 20260505194628 | 11 | 48 | 9.7 | 17.7 | 0.00 | 0.00 | 0.00 | 74 | 1009.8 |
| 20260505193627 | 11 | 48 | 9.7 | 17.7 | 0.00 | 0.00 | 0.00 | 75 | 1009.7 |
| 20260505192627 | 12 | 48 | 9.7 | 17.7 | 0.00 | 0.00 | 0.00 | 77 | 1009.5 |
| 20260505191626 | 12 | 48 | 9.7 | 17.7 | 0.00 | 0.00 | 0.00 | 78 | 1009.5 |
| 20260505190625 | 12 | 48 | 9.7 | 17.7 | 0.00 | 0.00 | 0.00 | 79 | 1009.4 |
| 20260505185625 | 11 | 30 | 8.0 | 16.1 | 0.00 | 0.00 | 0.00 | 79 | 1009.3 |
| 20260505184624 | 12 | 30 | 6.4 | 12.9 | 0.00 | 0.00 | 0.00 | 77 | 1009.3 |
| 20260505183624 | 12 | 42 | 8.0 | 14.5 | 0.03 | 0.00 | 0.00 | 74 | 1009.2 |
| 20260505182623 | 12 | 42 | 8.0 | 16.1 | 0.03 | 0.00 | 0.00 | 73 | 1009.2 |
| 20260505181621 | 12 | 56 | 8.0 | 16.1 | 0.00 | 0.00 | 0.00 | 75 | 1009.3 |
| 20260505180621 | 12 | 56 | 9.7 | 17.7 | 0.00 | 0.00 | 0.00 | 74 | 1009.2 |
| 20260505175620 | 13 | 18 | 8.0 | 16.1 | 0.00 | 0.00 | 0.00 | 68 | 1009.1 |
| 20260505174619 | 13 | 18 | 8.0 | 16.1 | 0.00 | 0.00 | 0.00 | 57 | 1008.9 |
| 20260505173619 | 14 | 18 | 8.0 | 14.5 | 0.00 | 0.00 | 0.00 | 56 | 1008.9 |
| 20260505172618 | 14 | 18 | 6.4 | 14.5 | 0.00 | 0.00 | 0.00 | 54 | 1008.8 |
| 20260505171617 | 14 | 18 | 6.4 | 14.5 | 0.00 | 0.00 | 0.00 | 54 | 1008.8 |
| 20260505170616 | 15 | 18 | 6.4 | 12.9 | 0.00 | 0.00 | 0.00 | 53 | 1008.9 |
| 20260505165614 | 15 | 80 | 6.4 | 11.3 | 0.00 | 0.00 | 0.00 | 52 | 1008.9 |
| 20260505164614 | 15 | 80 | 6.4 | 11.3 | 0.00 | 0.00 | 0.00 | 52 | 1008.8 |
| 20260505163613 | 15 | 80 | 4.8 | 9.7 | 0.00 | 0.00 | 0.00 | 52 | 1008.8 |
| 20260505162612 | 15 | 80 | 3.2 | 8.0 | 0.00 | 0.00 | 0.00 | 53 | 1008.8 |
| 20260505161611 | 15 | 80 | 3.2 | 8.0 | 0.00 | 0.00 | 0.00 | 52 | 1008.8 |
| 20260505160610 | 15 | 80 | 3.2 | 8.0 | 0.00 | 0.00 | 0.00 | 53 | 1008.8 |
| 20260505152606 | 16 | 80 | 3.2 | 9.7 | 0.00 | 0.00 | 0.00 | 51 | 1008.8 |
| 20260505151606 | 16 | 80 | 3.2 | 9.7 | 0.00 | 0.00 | 0.00 | 49 | 1008.8 |
| 20260505150605 | 16 | 56 | 9.7 | 17.7 | 0.00 | 0.00 | 0.00 | 49 | 1008.9 |
| 20260505140557 | 17 | 134 | 8.0 | 16.1 | 0.00 | 0.00 | 0.00 | 44 | 1008.9 |
| 20260505124551 | 18 | 40 | 8.0 | 19.3 | 0.00 | 0.00 | 0.00 | 38 | 1008.9 |